Hourly Weather Kozubowka

Today, 31 October, Saturday

Time Temperature Precipitation Wind Pressure Humidity
00:00 +10°C° 0.2 mm 1 mps 754 mmHg 97%
01:00 +10°C° 0 mm 1 mps 754 mmHg 97%
02:00 +10°C° 0.1 mm 1 mps 754 mmHg 97%
03:00 +10°C° 0.1 mm 1 mps 754 mmHg 96%
04:00 +10°C° 0.1 mm 1 mps 755 mmHg 95%
05:00 +10°C° 0 mm 1 mps 755 mmHg 95%
06:00 +10°C° 0 mm 1 mps 755 mmHg 95%
07:00 +9°C° 0 mm 1 mps 756 mmHg 95%
08:00 +9°C° 0 mm 2 mps 756 mmHg 92%
09:00 +9°C° 0 mm 2 mps 756 mmHg 90%
10:00 +10°C° 0 mm 2 mps 757 mmHg 87%
11:00 +12°C° 0 mm 2 mps 757 mmHg 84%
12:00 +13°C° 0 mm 2 mps 757 mmHg 81%
13:00 +13°C° 0 mm 3 mps 757 mmHg 77%
14:00 +13°C° 0 mm 2 mps 757 mmHg 80%
15:00 +13°C° 0 mm 2 mps 756 mmHg 83%
16:00 +12°C° 0 mm 2 mps 756 mmHg 85%
17:00 +12°C° 0 mm 2 mps 756 mmHg 87%
18:00 +10°C° 0 mm 3 mps 756 mmHg 89%
19:00 +10°C° 0 mm 3 mps 756 mmHg 91%
20:00 +9°C° 0 mm 3 mps 756 mmHg 90%
21:00 +9°C° 0 mm 3 mps 756 mmHg 89%
22:00 +8°C° 0 mm 4 mps 755 mmHg 89%
23:00 +8°C° 0 mm 4 mps 755 mmHg 89%

Tomorrow, 1 November, Sunday

Time Temperature Precipitation Wind Pressure Humidity
00:00 +7°C° 0 mm 4 mps 755 mmHg 89%
01:00 +7°C° 0 mm 4 mps 755 mmHg 90%
02:00 +7°C° 0 mm 4 mps 754 mmHg 90%
03:00 +7°C° 0 mm 4 mps 754 mmHg 91%
04:00 +7°C° 0 mm 4 mps 753 mmHg 92%
05:00 +7°C° 0 mm 4 mps 753 mmHg 93%
06:00 +8°C° 0 mm 3 mps 753 mmHg 93%
07:00 +8°C° 0 mm 3 mps 753 mmHg 94%
08:00 +9°C° 0 mm 3 mps 752 mmHg 91%
09:00 +10°C° 0 mm 4 mps 752 mmHg 88%
10:00 +11°C° 0 mm 4 mps 752 mmHg 85%
11:00 +11°C° 0.1 mm 4 mps 751 mmHg 87%
12:00 +11°C° 0.1 mm 3 mps 751 mmHg 88%
13:00 +11°C° 0.1 mm 3 mps 750 mmHg 90%
14:00 +11°C° 0.5 mm 3 mps 750 mmHg 91%
15:00 +11°C° 0.5 mm 4 mps 749 mmHg 92%
16:00 +11°C° 0.5 mm 4 mps 749 mmHg 93%
17:00 +11°C° 0.5 mm 4 mps 749 mmHg 93%
18:00 +11°C° 0.5 mm 4 mps 749 mmHg 92%
19:00 +11°C° 0.5 mm 4 mps 748 mmHg 91%
20:00 +11°C° 0.3 mm 4 mps 748 mmHg 91%
21:00 +10°C° 0.3 mm 5 mps 748 mmHg 91%
22:00 +10°C° 0.3 mm 5 mps 748 mmHg 92%
23:00 +12°C° 0.1 mm 5 mps 748 mmHg 92%

Day after tomorrow, 2 November, Monday

Time Temperature Precipitation Wind Pressure Humidity
00:00 +13°C° 0.1 mm 4 mps 748 mmHg 91%
01:00 +13°C° 0.1 mm 4 mps 748 mmHg 91%
02:00 +13°C° 0 mm 4 mps 748 mmHg 90%
03:00 +13°C° 0 mm 4 mps 748 mmHg 89%
04:00 +12°C° 0 mm 4 mps 749 mmHg 88%
05:00 +12°C° 0 mm 3 mps 749 mmHg 88%
06:00 +12°C° 0 mm 3 mps 749 mmHg 88%
07:00 +12°C° 0 mm 2 mps 749 mmHg 89%
08:00 +12°C° 0.2 mm 2 mps 749 mmHg 89%
09:00 +12°C° 0.2 mm 2 mps 750 mmHg 89%
10:00 +12°C° 0.2 mm 2 mps 750 mmHg 89%
11:00 +12°C° 0.2 mm 3 mps 750 mmHg 91%
12:00 +13°C° 0.2 mm 3 mps 750 mmHg 92%
13:00 +13°C° 0.2 mm 3 mps 750 mmHg 94%
14:00 +14°C° 0 mm 3 mps 749 mmHg 93%
15:00 +14°C° 0 mm 3 mps 749 mmHg 92%
16:00 +16°C° 0 mm 3 mps 749 mmHg 91%
17:00 +16°C° 0 mm 3 mps 750 mmHg 90%
18:00 +15°C° 0 mm 4 mps 750 mmHg 90%
19:00 +15°C° 0 mm 4 mps 750 mmHg 90%
20:00 +15°C° 0 mm 4 mps 750 mmHg 89%
21:00 +15°C° 0 mm 4 mps 750 mmHg 88%
22:00 +15°C° 0 mm 4 mps 750 mmHg 87%
23:00 +15°C° 0 mm 4 mps 750 mmHg 86%

3 November, Tuesday

Time Temperature Precipitation Wind Pressure Humidity
00:00 +15°C° 0 mm 4 mps 750 mmHg 86%
01:00 +15°C° 0 mm 4 mps 750 mmHg 85%
02:00 +15°C° 0 mm 4 mps 751 mmHg 85%
03:00 +15°C° 0 mm 4 mps 751 mmHg 86%
04:00 +15°C° 0 mm 4 mps 751 mmHg 86%
05:00 +14°C° 0 mm 4 mps 752 mmHg 82%
06:00 +13°C° 0 mm 4 mps 752 mmHg 78%
07:00 +12°C° 0 mm 4 mps 753 mmHg 74%
08:00 +12°C° 0 mm 4 mps 754 mmHg 70%
09:00 +12°C° 0 mm 5 mps 755 mmHg 66%
10:00 +11°C° 0 mm 6 mps 755 mmHg 63%
11:00 +11°C° 0 mm 6 mps 756 mmHg 61%
12:00 +11°C° 0 mm 6 mps 756 mmHg 60%
13:00 +13°C° 0 mm 6 mps 756 mmHg 58%
14:00 +12°C° 0 mm 5 mps 757 mmHg 61%
15:00 +10°C° 0 mm 5 mps 757 mmHg 63%
16:00 +11°C° 0 mm 4 mps 757 mmHg 65%
17:00 +10°C° 0 mm 4 mps 758 mmHg 64%
18:00 +10°C° 0 mm 3 mps 758 mmHg 64%
19:00 +9°C° 0 mm 3 mps 758 mmHg 64%
20:00 +9°C° 0 mm 3 mps 759 mmHg 66%
21:00 +8°C° 0 mm 3 mps 759 mmHg 69%
22:00 +8°C° 0 mm 3 mps 759 mmHg 72%
23:00 +7°C° 0 mm 3 mps 759 mmHg 74%

4 November, Wednesday

Time Temperature Precipitation Wind Pressure Humidity
00:00 +7°C° 0 mm 3 mps 759 mmHg 75%
01:00 +7°C° 0 mm 3 mps 760 mmHg 77%
02:00 +5°C° 0 mm 3 mps 760 mmHg 78%
03:00 +5°C° 0 mm 3 mps 760 mmHg 80%
04:00 +5°C° 0 mm 3 mps 760 mmHg 82%
05:00 +4°C° 0 mm 3 mps 760 mmHg 83%
06:00 +4°C° 0 mm 3 mps 760 mmHg 84%
07:00 +4°C° 0 mm 3 mps 761 mmHg 85%
08:00 +5°C° 0 mm 3 mps 761 mmHg 81%
09:00 +5°C° 0 mm 3 mps 761 mmHg 76%
10:00 +6°C° 0 mm 4 mps 761 mmHg 71%
11:00 +8°C° 0 mm 3 mps 761 mmHg 68%
12:00 +9°C° 0 mm 3 mps 762 mmHg 65%
13:00 +9°C° 0 mm 3 mps 762 mmHg 63%
14:00 +9°C° 0 mm 2 mps 762 mmHg 66%
15:00 +8°C° 0 mm 2 mps 762 mmHg 69%
16:00 +8°C° 0 mm 1 mps 762 mmHg 71%
17:00 +8°C° 0 mm 1 mps 762 mmHg 74%
18:00 +7°C° 0 mm 1 mps 762 mmHg 77%
19:00 +7°C° 0 mm 1 mps 762 mmHg 79%
20:00 +7°C° 0 mm 1 mps 763 mmHg 81%
21:00 +6°C° 0 mm 1 mps 763 mmHg 83%
22:00 +6°C° 0 mm 1 mps 763 mmHg 84%
23:00 +6°C° 0 mm 1 mps 763 mmHg 86%

5 November, Thursday

Time Temperature Precipitation Wind Pressure Humidity
00:00 +5°C° 0 mm 1 mps 763 mmHg 88%
01:00 +5°C° 0 mm 1 mps 763 mmHg 90%
02:00 +5°C° 0 mm 1 mps 763 mmHg 91%
03:00 +5°C° 0 mm 1 mps 764 mmHg 91%
04:00 +5°C° 0 mm 1 mps 764 mmHg 92%
05:00 +4°C° 0 mm 1 mps 764 mmHg 92%
06:00 +4°C° 0 mm 1 mps 764 mmHg 93%
07:00 +4°C° 0 mm 1 mps 764 mmHg 93%
08:00 +4°C° 0 mm 2 mps 765 mmHg 88%
09:00 +5°C° 0 mm 2 mps 765 mmHg 83%
10:00 +6°C° 0 mm 2 mps 765 mmHg 77%
11:00 +7°C° 0 mm 2 mps 765 mmHg 73%
12:00 +8°C° 0 mm 2 mps 765 mmHg 68%
13:00 +9°C° 0 mm 2 mps 766 mmHg 64%
14:00 +8°C° 0 mm 2 mps 766 mmHg 67%
15:00 +7°C° 0 mm 2 mps 766 mmHg 71%
16:00 +7°C° 0 mm 2 mps 765 mmHg 75%
17:00 +6°C° 0 mm 2 mps 766 mmHg 78%
18:00 +5°C° 0 mm 2 mps 766 mmHg 81%
19:00 +5°C° 0 mm 2 mps 766 mmHg 84%
20:00 +5°C° 0 mm 2 mps 766 mmHg 86%
21:00 +4°C° 0 mm 2 mps 767 mmHg 89%
22:00 +4°C° 0 mm 2 mps 767 mmHg 91%
23:00 +4°C° 0 mm 2 mps 767 mmHg 92%
Show more